Location: Archemont
(49.1579°N, 1.7598°E)
Time: 09:32:14
(UTC+00:00)

ISS - Pass Details

Date: 08 March 2024
Orbit: 413 x 419 km, 51.6° (Epoch: 13 April)

Event Time Altitude Azimuth Distance (km) Brightness Sun altitude
Exits shadow 05:11:12 11° 215° (SW) 1,481 -1.4 -12.1°
Drops below altitude 10° 05:11:32 10° 210° (SSW) 1,511 -1.3 -12.1°
Sets 05:15:00 0° 172° (S) 2,368 0.1 -11.5°
